Bel Air, Maryland - USA |
Today's Data File |
5/8/26
Time Wind Dir Wind Spd Wind Gust Hum In Humidity Temp In Temp Raw Barom Wind Chill Press Alt Cloud Base Dens Alt Temp Out R DailyRain 24HrRain RainRate
� mph mph % % �F �F in �F ft ft ft �F/hr in in in/hr
12:00am 238 1 4 41 80 73.8 52.9 29.27 52.9 605 1498 363 -1.08 0.00 0.11 0.000
12:01am 238 1 1 41 80 73.8 52.8 29.27 52.8 604 1497 355 -1.16 0.00 0.11 0.000
12:02am 238 2 2 41 80 73.8 52.8 29.27 52.8 603 1497 354 -1.14 0.00 0.11 0.000
12:03am 238 0 2 41 80 73.8 52.8 29.27 52.8 604 1497 355 -1.13 0.00 0.11 0.000
12:04am 238 0 2 41 80 73.8 52.7 29.27 52.7 603 1497 348 -1.21 0.00 0.11 0.000
12:05am 238 2 2 41 80 73.8 52.7 29.27 52.7 602 1497 346 -1.19 0.00 0.11 0.000
12:06am 238 1 2 41 80 73.8 52.6 29.27 52.6 602 1496 340 -1.26 0.00 0.11 0.000
12:07am 238 0 2 41 80 73.8 52.6 29.27 52.6 602 1496 340 -1.24 0.00 0.11 0.000
12:08am 238 0 2 41 80 73.8 52.5 29.27 52.5 602 1495 333 -1.32 0.00 0.11 0.000
12:09am 238 0 2 41 80 73.8 52.5 29.28 52.5 601 1495 332 -1.30 0.00 0.11 0.000
12:10am 238 0 2 41 80 73.8 52.5 29.27 52.5 602 1495 333 -1.28 0.00 0.11 0.000
12:11am 238 0 0 41 81 73.8 52.4 29.27 52.4 602 1413 326 -1.36 0.00 0.11 0.000
12:12am 238 0 0 41 81 73.8 52.3 29.28 52.3 600 1412 317 -1.44 0.00 0.11 0.000
12:13am 238 0 0 41 81 73.8 52.4 29.28 52.4 599 1413 323 -1.31 0.00 0.11 0.000
12:14am 238 0 0 41 81 73.8 52.4 29.28 52.4 600 1413 324 -1.29 0.00 0.11 0.000
12:15am 238 0 0 41 81 73.8 52.3 29.28 52.3 599 1412 316 -1.37 0.00 0.11 0.000
12:16am 238 0 0 41 82 73.8 52.3 29.28 52.3 598 1331 315 -1.34 0.00 0.11 0.000
12:17am 238 0 0 41 82 73.8 52.2 29.28 52.2 599 1330 310 -1.42 0.00 0.11 0.000
12:18am 238 0 0 41 82 73.8 52.2 29.28 52.2 599 1330 310 -1.40 0.00 0.11 0.000
12:19am 238 0 0 41 82 73.8 52.2 29.28 52.2 599 1330 310 -1.38 0.00 0.11 0.000
12:20am 238 0 0 41 82 73.8 52.1 29.28 52.1 599 1330 303 -1.45 0.00 0.11 0.000
12:21am 238 0 0 41 82 73.8 52.0 29.28 52.0 597 1329 294 -1.53 0.00 0.11 0.000
12:22am 238 0 0 41 82 73.8 52.0 29.28 52.0 598 1329 295 -1.50 0.00 0.11 0.000
12:23am 238 0 0 41 82 73.8 52.0 29.28 52.0 598 1329 295 -1.48 0.00 0.11 0.000
12:24am 238 0 0 41 82 73.8 52.0 29.28 52.0 599 1329 296 -1.45 0.00 0.11 0.000
12:25am 238 0 0 41 82 73.8 51.9 29.28 51.9 598 1328 289 -1.53 0.00 0.11 0.000
12:26am 238 0 0 41 82 73.8 51.9 29.28 51.9 597 1328 287 -1.51 0.00 0.11 0.000
12:27am 238 0 0 41 82 73.8 51.8 29.28 51.8 598 1328 282 -1.58 0.00 0.11 0.000
12:28am 238 0 0 41 82 73.8 51.8 29.28 51.8 598 1328 282 -1.55 0.00 0.11 0.000
12:29am 238 0 0 41 82 73.8 51.8 29.28 51.8 598 1328 282 -1.53 0.00 0.11 0.000
12:30am 238 0 0 41 82 73.8 51.7 29.28 51.7 598 1327 275 -1.60 0.00 0.11 0.000
12:31am 238 0 0 41 82 73.8 51.7 29.28 51.7 597 1327 274 -1.57 0.00 0.11 0.000
12:32am 238 0 0 41 82 73.8 51.7 29.28 51.7 598 1327 275 -1.55 0.00 0.11 0.000
12:33am 238 0 0 41 83 73.8 51.6 29.28 51.6 596 1246 266 -1.62 0.00 0.11 0.000
12:34am 238 0 0 41 83 73.8 51.6 29.28 51.6 596 1246 266 -1.60 0.00 0.11 0.000
12:35am 238 0 0 41 83 73.8 51.6 29.28 51.6 596 1246 266 -1.57 0.00 0.11 0.000
12:36am 238 0 0 41 83 73.8 51.5 29.28 51.5 596 1246 260 -1.64 0.00 0.11 0.000
12:37am 238 0 0 41 83 73.8 51.5 29.28 51.5 596 1246 258 -1.62 0.00 0.11 0.000
12:38am 238 0 0 41 83 73.8 51.5 29.28 51.5 595 1246 257 -1.59 0.00 0.11 0.000
12:39am 238 0 0 41 83 73.8 51.5 29.28 51.5 595 1246 257 -1.56 0.00 0.11 0.000
12:40am 238 0 0 41 83 73.8 51.4 29.28 51.4 595 1245 251 -1.64 0.00 0.11 0.000
12:41am 238 0 0 41 83 73.8 51.3 29.28 51.3 595 1245 244 -1.71 0.00 0.10 0.000
12:42am 238 0 0 41 83 73.8 51.3 29.28 51.3 595 1245 244 -1.68 0.00 0.10 0.000
12:43am 238 0 0 41 83 73.8 51.3 29.28 51.3 595 1245 244 -1.65 0.00 0.10 0.000
12:44am 238 0 0 41 83 73.8 51.3 29.28 51.3 595 1245 244 -1.62 0.00 0.10 0.000
12:45am 238 0 0 41 83 73.8 51.2 29.28 51.2 594 1244 236 -1.70 0.00 0.10 0.000
12:46am 238 0 0 41 83 73.8 51.2 29.28 51.2 594 1244 236 -1.67 0.00 0.08 0.000
12:47am 238 0 0 41 83 73.8 51.2 29.28 51.2 594 1244 236 -1.64 0.00 0.08 0.000
12:48am 238 0 0 41 83 73.8 51.1 29.28 51.1 594 1244 229 -1.71 0.00 0.08 0.000
12:49am 238 0 0 41 83 73.8 51.1 29.28 51.1 594 1244 229 -1.69 0.00 0.08 0.000
12:50am 238 0 0 41 83 73.8 51.0 29.28 51.0 594 1243 223 -1.76 0.00 0.08 0.000
12:51am 238 0 0 41 83 73.8 51.0 29.28 51.0 594 1243 223 -1.73 0.00 0.08 0.000
12:52am 238 0 0 41 84 73.8 51.0 29.28 51.0 594 1164 223 -1.70 0.00 0.08 0.000
12:53am 238 0 0 41 84 73.8 51.0 29.28 51.0 593 1164 222 -1.67 0.00 0.08 0.000
12:54am 238 0 0 41 84 73.8 51.0 29.28 51.0 593 1164 222 -1.65 0.00 0.08 0.000
12:55am 238 0 0 41 84 73.8 50.9 29.28 50.9 593 1164 215 -1.72 0.00 0.08 0.000
12:56am 238 0 0 41 84 73.8 50.9 29.28 50.9 593 1164 215 -1.69 0.00 0.08 0.000
12:57am 238 0 0 41 84 73.8 50.8 29.28 50.8 593 1163 208 -1.76 0.00 0.08 0.000
12:58am 238 0 0 41 84 73.8 50.8 29.28 50.8 593 1163 208 -1.73 0.00 0.08 0.000
12:59am 238 0 0 41 84 73.8 50.8 29.29 50.8 592 1163 207 -1.70 0.00 0.08 0.000
1:00am 238 0 0 41 84 73.8 50.8 29.29 50.8 592 1163 207 -1.67 0.00 0.08 0.000
1:01am 238 0 0 41 84 73.8 50.8 29.29 50.8 592 1163 207 -1.65 0.00 0.08 0.000
1:02am 238 0 0 41 84 73.8 50.7 29.29 50.7 592 1163 200 -1.72 0.00 0.08 0.000
1:03am 238 0 0 41 84 73.8 50.7 29.29 50.7 592 1163 200 -1.69 0.00 0.08 0.000
1:04am 238 0 0 41 84 73.8 50.6 29.29 50.6 592 1162 194 -1.76 0.00 0.08 0.000
1:05am 238 0 0 41 84 73.8 50.6 29.29 50.6 592 1162 194 -1.73 0.00 0.08 0.000
1:06am 238 0 0 41 84 73.8 50.6 29.29 50.6 591 1162 193 -1.70 0.00 0.08 0.000
1:07am 238 0 0 41 84 73.8 50.5 29.29 50.5 591 1162 186 -1.77 0.00 0.08 0.000
1:08am 238 0 0 43 85 73.8 50.5 29.29 50.5 590 1083 185 -1.74 0.00 0.08 0.000
1:09am 238 0 0 41 85 73.8 50.5 29.29 50.5 590 1083 185 -1.72 0.00 0.08 0.000
1:10am 238 0 0 41 85 73.8 50.5 29.29 50.5 590 1083 185 -1.69 0.00 0.08 0.000
1:11am 238 0 0 41 85 73.8 50.5 29.29 50.5 590 1083 185 -1.66 0.00 0.08 0.000
1:12am 238 0 0 41 85 73.8 50.5 29.29 50.5 590 1083 185 -1.63 0.00 0.08 0.000
1:13am 238 0 0 41 85 73.8 50.4 29.29 50.4 587 1083 175 -1.70 0.00 0.08 0.000
1:14am 238 0 0 41 85 73.8 50.4 29.29 50.4 588 1083 176 -1.67 0.00 0.08 0.000
1:15am 238 0 0 41 85 73.8 50.4 29.29 50.4 588 1083 176 -1.65 0.00 0.08 0.000
1:16am 238 0 0 41 85 73.8 50.4 29.29 50.4 589 1083 177 -1.62 0.00 0.08 0.000
1:17am 238 0 0 41 85 73.8 50.4 29.29 50.4 589 1083 177 -1.59 0.00 0.08 0.000
1:18am 238 0 0 41 85 73.8 50.3 29.29 50.3 588 1082 169 -1.67 0.00 0.08 0.000
1:19am 238 0 0 41 85 73.8 50.3 29.29 50.3 588 1082 169 -1.64 0.00 0.08 0.000
1:20am 238 0 0 41 85 73.8 50.3 29.29 50.3 587 1082 168 -1.61 0.00 0.08 0.000
1:21am 238 0 0 41 85 73.8 50.3 29.29 50.3 587 1082 168 -1.59 0.00 0.07 0.000
1:22am 238 0 0 41 85 73.8 50.3 29.29 50.3 587 1082 168 -1.56 0.00 0.07 0.000
1:23am 238 0 0 41 85 73.8 50.3 29.29 50.3 588 1082 169 -1.54 0.00 0.07 0.000
1:24am 199 0 0 41 85 73.8 50.3 29.29 50.3 589 1082 170 -1.51 0.00 0.07 0.000
1:25am 199 0 0 41 85 73.8 50.3 29.29 50.3 588 1082 169 -1.49 0.00 0.07 0.000
1:26am 199 0 0 41 85 73.8 50.3 29.29 50.3 586 1082 167 -1.46 0.00 0.07 0.000
1:27am 199 0 0 43 85 73.8 50.3 29.29 50.3 587 1082 168 -1.44 0.00 0.07 0.000
1:28am 199 0 0 41 86 73.8 50.3 29.29 50.3 586 1005 167 -1.41 0.00 0.07 0.000
1:29am 199 0 0 41 86 73.8 50.3 29.29 50.3 586 1005 167 -1.39 0.00 0.07 0.000
1:30am 199 0 0 41 86 73.8 50.3 29.29 50.3 587 1005 168 -1.37 0.00 0.07 0.000
1:31am 258 2 2 41 86 73.8 50.3 29.29 50.3 584 1005 165 -1.35 0.00 0.06 0.000
1:32am 171 2 2 41 86 73.8 50.3 29.29 50.3 584 1005 165 -1.32 0.00 0.06 0.000
1:33am 172 1 2 41 86 74.0 50.3 29.29 50.3 584 1005 163 -1.30 0.00 0.06 0.000
1:34am 172 2 2 41 86 74.0 50.3 29.29 50.3 584 1005 163 -1.28 0.00 0.06 0.000
1:35am 172 2 2 41 86 74.0 50.3 29.30 50.3 582 1005 161 -1.26 0.00 0.06 0.000
1:36am 172 2 2 41 86 74.0 50.3 29.30 50.3 583 1005 162 -1.24 0.00 0.06 0.000
1:37am 172 1 3 41 86 74.0 50.4 29.30 50.4 581 1006 167 -1.12 0.00 0.06 0.000
1:38am 172 0 3 41 86 74.0 50.4 29.30 50.4 581 1006 167 -1.10 0.00 0.06 0.000
1:39am 172 0 3 41 86 74.0 50.3 29.30 50.3 580 1005 159 -1.18 0.00 0.06 0.000
1:40am 172 1 3 41 86 74.0 50.4 29.30 50.4 579 1006 164 -1.06 0.00 0.06 0.000
1:41am 172 1 1 41 86 74.0 50.3 29.30 50.3 579 1005 158 -1.14 0.00 0.06 0.000
1:42am 172 2 2 41 86 74.0 50.3 29.30 50.3 578 1005 157 -1.12 0.00 0.06 0.000
1:43am 172 0 2 41 86 74.0 50.3 29.30 50.3 578 1005 157 -1.11 0.00 0.06 0.000
1:44am 172 1 3 41 85 74.0 50.3 29.30 50.3 578 1082 157 -1.09 0.00 0.06 0.000
1:45am 172 2 3 41 85 74.0 50.3 29.30 50.3 578 1082 157 -1.07 0.00 0.06 0.000
1:46am 172 0 2 41 85 74.0 50.3 29.30 50.3 578 1082 157 -1.05 0.00 0.06 0.000
1:47am 172 1 2 41 85 74.0 50.3 29.30 50.3 578 1082 157 -1.03 0.00 0.06 0.000
1:48am 172 2 2 41 86 74.0 50.3 29.30 50.3 578 1005 157 -1.02 0.00 0.06 0.000
1:49am 172 1 2 41 85 74.0 50.3 29.30 50.3 578 1082 157 -1.00 0.00 0.06 0.000
1:50am 167 2 3 41 85 74.0 50.3 29.30 50.3 578 1082 157 -0.98 0.00 0.06 0.000
1:51am 320 2 3 41 85 74.0 50.3 29.30 50.3 577 1082 155 -0.97 0.00 0.06 0.000
1:52am 283 1 3 41 84 74.0 50.3 29.30 50.3 578 1161 157 -0.95 0.00 0.06 0.000
1:53am 283 0 3 41 84 74.0 50.3 29.30 50.3 577 1161 155 -0.94 0.00 0.06 0.000
1:54am 321 2 3 41 84 74.0 50.2 29.30 50.2 576 1160 148 -1.02 0.00 0.06 0.000
1:55am 321 0 3 41 84 74.0 50.3 29.30 50.3 577 1161 155 -0.90 0.00 0.06 0.000
1:56am 321 2 3 41 84 74.0 50.3 29.30 50.3 577 1161 155 -0.89 0.00 0.05 0.000
1:57am 321 1 3 41 84 74.0 50.3 29.30 50.3 577 1161 155 -0.87 0.00 0.05 0.000
1:58am 350 0 3 41 84 74.0 50.3 29.30 50.3 577 1161 155 -0.86 0.00 0.05 0.000
1:59am 7 3 3 41 83 74.0 50.3 29.30 50.0 575 1239 153 -0.85 0.00 0.05 0.000
2:00am 300 3 3 41 83 74.0 50.4 29.30 50.1 575 1240 160 -0.73 0.00 0.05 0.000
2:01am 300 0 3 41 83 74.0 50.4 29.30 50.4 575 1240 160 -0.72 0.00 0.05 0.000
2:02am 300 0 3 41 83 74.0 50.5 29.30 50.5 574 1241 165 -0.61 0.00 0.05 0.000
2:03am 18 1 3 41 83 74.0 50.5 29.30 50.5 575 1241 166 -0.60 0.00 0.05 0.000
2:04am 341 1 3 41 82 74.0 50.5 29.31 50.5 573 1320 164 -0.59 0.00 0.05 0.000
2:05am 341 2 3 41 82 74.0 50.5 29.31 50.5 573 1320 164 -0.58 0.00 0.05 0.000
2:06am 341 1 2 41 82 74.0 50.5 29.31 50.5 571 1320 161 -0.57 0.00 0.05 0.000
2:07am 266 0 2 41 82 74.0 50.5 29.31 50.5 573 1320 164 -0.56 0.00 0.05 0.000
2:08am 266 0 2 41 82 74.0 50.5 29.31 50.5 573 1320 164 -0.55 0.00 0.05 0.000
2:09am 266 0 2 41 81 74.0 50.5 29.31 50.5 572 1401 163 -0.54 0.00 0.05 0.000
2:10am 129 1 2 41 82 74.0 50.5 29.31 50.5 572 1320 162 -0.53 0.00 0.05 0.000
2:11am 129 1 2 41 82 74.0 50.5 29.31 50.5 571 1320 161 -0.52 0.00 0.05 0.000
2:12am 130 1 3 41 82 74.0 50.5 29.31 50.5 569 1320 158 -0.51 0.00 0.05 0.000
2:13am 125 0 3 41 81 74.0 50.5 29.31 50.5 569 1401 158 -0.51 0.00 0.05 0.000
2:14am 125 0 3 41 81 74.0 50.5 29.31 50.5 569 1401 158 -0.50 0.00 0.05 0.000
2:15am 125 0 3 41 81 74.0 50.5 29.31 50.5 568 1401 157 -0.49 0.00 0.05 0.000
2:16am 125 0 0 41 81 74.0 50.5 29.31 50.5 568 1401 157 -0.48 0.00 0.05 0.000
2:17am 125 1 1 41 81 74.0 50.5 29.31 50.5 566 1401 155 -0.47 0.00 0.05 0.000
2:18am 125 0 2 41 80 74.0 50.5 29.31 50.5 567 1482 156 -0.47 0.00 0.05 0.000
2:19am 317 4 4 41 81 74.0 50.5 29.31 49.4 568 1401 157 -0.46 0.00 0.05 0.000
2:20am 6 0 4 41 80 74.0 50.5 29.31 50.5 566 1482 155 -0.45 0.00 0.05 0.000
2:21am 4 3 3 41 81 74.0 50.5 29.31 50.2 565 1401 154 -0.44 0.00 0.05 0.000
2:22am 74 4 4 41 80 74.0 50.5 29.31 49.4 566 1482 155 -0.43 0.00 0.05 0.000
2:23am 339 0 4 41 79 74.0 50.5 29.31 50.5 567 1565 156 -0.43 0.00 0.05 0.000
2:24am 339 0 4 41 79 74.0 50.5 29.31 50.5 565 1565 154 -0.42 0.00 0.05 0.000
2:25am 339 0 4 41 80 74.0 50.5 29.31 50.5 566 1482 155 -0.41 0.00 0.05 0.000
2:26am 347 2 2 41 80 74.0 50.5 29.31 50.5 566 1482 155 -0.41 0.00 0.04 0.000
2:27am 199 1 4 41 80 74.0 50.4 29.31 50.4 565 1482 147 -0.50 0.00 0.04 0.000
2:28am 199 0 4 41 79 74.0 50.5 29.31 50.5 565 1565 154 -0.39 0.00 0.04 0.000
2:29am 199 0 4 41 79 74.0 50.3 29.32 50.3 564 1564 139 -0.58 0.00 0.04 0.000
2:30am 199 2 4 41 79 74.0 50.4 29.32 50.4 564 1564 146 -0.47 0.00 0.04 0.000
2:31am 199 2 2 41 79 74.0 50.4 29.32 50.4 562 1564 144 -0.47 0.00 0.04 0.000
2:32am 58 3 8 41 79 74.0 50.4 29.32 50.1 562 1564 144 -0.46 0.00 0.04 0.000
2:33am 56 1 8 41 77 74.0 50.4 29.32 50.4 562 1732 144 -0.45 0.00 0.04 0.000
2:34am 52 1 8 41 78 74.0 50.4 29.32 50.4 562 1648 144 -0.44 0.00 0.04 0.000
2:35am 51 2 8 41 78 74.0 50.4 29.32 50.4 562 1648 144 -0.43 0.00 0.04 0.000
2:36am 14 1 4 41 78 74.0 50.4 29.32 50.4 562 1648 144 -0.43 0.00 0.04 0.000
2:37am 12 1 4 41 77 74.0 50.4 29.32 50.4 562 1732 144 -0.42 0.00 0.04 0.000
2:38am 360 3 6 41 78 74.0 50.4 29.32 50.1 562 1648 144 -0.41 0.00 0.04 0.000
2:39am 360 1 6 41 77 74.0 50.4 29.32 50.4 562 1732 144 -0.41 0.00 0.04 0.000
2:40am 360 1 6 41 77 74.0 50.5 29.32 50.5 562 1733 150 -0.30 0.00 0.04 0.000
2:41am 360 2 2 41 77 74.0 50.5 29.32 50.5 561 1733 149 -0.30 0.00 0.04 0.000
2:42am 360 2 2 41 77 74.0 50.5 29.32 50.5 562 1733 150 -0.29 0.00 0.04 0.000
2:43am 360 1 2 41 76 74.0 50.4 29.32 50.4 561 1817 143 -0.38 0.00 0.04 0.000
2:44am 360 1 2 41 75 74.0 50.4 29.32 50.4 561 1903 143 -0.38 0.00 0.04 0.000
2:45am 360 1 2 41 75 74.0 50.4 29.32 50.4 561 1903 143 -0.37 0.00 0.04 0.000
2:46am 268 2 3 41 75 74.0 50.4 29.32 50.4 561 1903 143 -0.37 0.00 0.04 0.000
2:47am 268 1 3 41 75 74.0 50.4 29.32 50.4 561 1903 143 -0.36 0.00 0.04 0.000
2:48am 320 1 3 41 74 74.0 50.4 29.32 50.4 561 1991 143 -0.35 0.00 0.04 0.000
2:49am 320 2 3 43 74 74.0 50.4 29.32 50.4 561 1991 143 -0.35 0.00 0.04 0.000
2:50am 354 4 4 41 74 74.0 50.4 29.32 49.3 562 1991 144 -0.34 0.00 0.04 0.000
2:51am 5 1 6 41 74 74.0 50.4 29.32 50.4 561 1991 143 -0.34 0.00 0.04 0.000
2:52am 5 1 6 41 74 74.0 50.5 29.32 50.5 561 1991 149 -0.23 0.00 0.04 0.000
2:53am 5 2 6 41 73 74.0 50.4 29.32 50.4 561 2079 143 -0.33 0.00 0.04 0.000
2:54am 5 2 6 41 72 74.0 50.5 29.32 50.5 561 2169 149 -0.22 0.00 0.04 0.000
2:55am 21 3 6 41 72 74.0 50.5 29.32 50.2 561 2169 149 -0.22 0.00 0.04 0.000
2:56am 21 2 4 41 73 74.0 50.5 29.32 50.5 560 2080 148 -0.22 0.00 0.03 0.000
2:57am 20 2 4 41 71 74.0 50.5 29.32 50.5 560 2260 148 -0.21 0.00 0.03 0.000
2:58am 16 1 4 41 71 74.0 50.5 29.32 50.5 560 2260 147 -0.21 0.00 0.03 0.000
2:59am 16 0 4 41 71 74.0 50.6 29.32 50.6 560 2261 154 -0.10 0.00 0.03 0.000
3:00am 16 0 4 41 72 74.0 50.6 29.32 50.6 560 2170 154 -0.10 0.00 0.03 0.000
3:01am 16 1 4 41 72 74.0 50.6 29.32 50.6 558 2170 151 -0.10 0.00 0.03 0.000
3:02am 16 1 4 41 71 74.0 50.6 29.32 50.6 558 2261 151 -0.10 0.00 0.03 0.000
3:03am 16 0 4 41 72 74.0 50.6 29.32 50.6 559 2170 153 -0.10 0.00 0.03 0.000
3:04am 16 0 4 41 73 74.0 50.6 29.32 50.6 558 2081 151 -0.10 0.00 0.03 0.000
3:05am 216 2 4 41 73 74.0 50.6 29.32 50.6 557 2081 150 -0.09 0.00 0.03 0.000
3:06am 289 3 4 41 73 74.0 50.5 29.32 50.2 557 2080 144 -0.19 0.00 0.03 0.000
3:07am 28 1 4 41 73 74.0 50.5 29.32 50.5 556 2080 142 -0.19 0.00 0.03 0.000
3:08am 28 0 4 41 73 74.0 50.5 29.32 50.5 556 2080 142 -0.18 0.00 0.03 0.000
3:09am 28 0 4 41 72 74.0 50.5 29.33 50.5 554 2169 140 -0.18 0.00 0.03 0.000
3:10am 12 1 4 41 72 74.2 50.5 29.32 50.5 557 2169 144 -0.18 0.00 0.03 0.000
3:11am 12 1 3 41 71 74.2 50.4 29.33 50.4 554 2259 133 -0.27 0.00 0.03 0.000
3:12am 193 3 6 41 71 74.2 50.4 29.32 50.1 558 2259 138 -0.27 0.00 0.03 0.000
3:13am 337 1 6 41 71 74.2 50.5 29.33 50.5 553 2260 139 -0.17 0.00 0.03 0.000
3:14am 351 1 6 41 72 74.2 50.5 29.33 50.5 554 2169 140 -0.16 0.00 0.03 0.000
3:15am 291 2 6 41 70 74.2 50.4 29.33 50.4 554 2350 133 -0.26 0.00 0.03 0.000
3:16am 291 0 2 41 71 74.2 50.4 29.32 50.4 555 2259 135 -0.26 0.00 0.02 0.000
3:17am 291 0 2 41 70 74.0 50.4 29.33 50.4 554 2350 133 -0.25 0.00 0.02 0.000
3:18am 291 0 2 41 70 74.0 50.4 29.33 50.4 552 2350 131 -0.25 0.00 0.02 0.000
3:19am 38 2 3 41 70 74.0 50.4 29.33 50.4 552 2350 131 -0.24 0.00 0.02 0.000
3:20am 12 2 3 41 70 74.0 50.4 29.33 50.4 551 2350 130 -0.24 0.00 0.02 0.000
3:21am 12 0 2 41 72 74.0 50.3 29.33 50.3 551 2167 123 -0.33 0.00 0.02 0.000
3:22am 12 3 3 41 72 74.0 50.4 29.33 50.1 551 2168 130 -0.23 0.00 0.02 0.000
3:23am 310 2 5 41 70 74.0 50.3 29.33 50.3 551 2349 123 -0.32 0.00 0.02 0.000
3:24am 348 2 5 41 69 74.0 50.2 29.33 50.2 550 2441 116 -0.42 0.00 0.02 0.000
3:25am 347 1 5 41 69 74.0 50.2 29.33 50.2 552 2441 118 -0.41 0.00 0.02 0.000
3:26am 337 1 3 41 70 74.0 50.3 29.33 50.3 550 2349 122 -0.31 0.00 0.01 0.000
3:27am 49 4 4 41 71 74.0 50.3 29.33 49.2 550 2258 122 -0.30 0.00 0.01 0.000
3:28am 354 1 4 41 71 74.0 50.3 29.33 50.3 549 2258 121 -0.30 0.00 0.01 0.000
3:29am 354 1 4 41 71 74.2 50.3 29.33 50.3 548 2258 120 -0.29 0.00 0.01 0.000
3:30am 222 1 4 41 70 74.2 50.2 29.33 50.2 548 2348 113 -0.38 0.00 0.01 0.000
3:31am 23 2 3 41 69 74.2 50.1 29.33 50.1 548 2440 107 -0.48 0.00 0.01 0.000
3:32am 25 0 3 41 69 74.2 50.2 29.33 50.2 548 2441 113 -0.37 0.00 0.01 0.000
3:33am 25 1 3 41 69 74.2 50.1 29.33 50.1 548 2440 107 -0.46 0.00 0.01 0.000
3:34am 25 0 3 41 71 74.2 50.1 29.33 50.1 548 2256 107 -0.46 0.00 0.01 0.000
3:35am 25 0 3 41 71 74.2 50.1 29.33 50.1 548 2256 107 -0.45 0.00 0.01 0.000
3:36am 25 0 2 41 71 74.2 50.1 29.33 50.1 548 2256 105 -0.44 0.00 0.01 0.000
3:37am 25 0 2 41 71 74.2 50.1 29.33 50.1 548 2256 105 -0.43 0.00 0.01 0.000
3:38am 25 0 2 41 72 74.2 50.0 29.33 50.0 548 2165 99 -0.53 0.00 0.01 0.000
3:39am 25 2 2 41 73 74.2 50.0 29.33 50.0 548 2075 99 -0.52 0.00 0.01 0.000
3:40am 25 0 2 41 71 74.2 49.9 29.33 49.9 548 2254 92 -0.61 0.00 0.01 0.000
3:41am 300 1 2 41 71 74.2 49.9 29.33 49.9 548 2254 92 -0.60 0.00 0.00 0.000
3:42am 300 0 2 41 70 74.2 49.8 29.33 49.8 548 2344 85 -0.69 0.00 0.00 0.000
3:43am 359 0 2 41 72 74.2 49.8 29.33 49.8 547 2163 84 -0.68 0.00 0.00 0.000
3:44am 45 0 3 41 71 74.2 49.8 29.33 49.8 547 2253 84 -0.66 0.00 0.00 0.000
3:45am 45 1 3 41 71 74.2 49.7 29.33 49.7 547 2252 77 -0.75 0.00 0.00 0.000
3:46am 45 1 2 41 70 74.2 49.7 29.33 49.7 546 2343 76 -0.74 0.00 0.00 0.000
3:47am 4 1 4 41 70 74.2 49.7 29.33 49.7 546 2343 76 -0.73 0.00 0.00 0.000
3:48am 4 0 4 41 71 74.2 49.6 29.33 49.6 546 2251 70 -0.81 0.00 0.00 0.000
3:49am 4 1 4 41 70 74.2 49.6 29.33 49.6 546 2342 70 -0.80 0.00 0.00 0.000
3:50am 4 2 4 41 70 74.2 49.6 29.34 49.6 545 2342 68 -0.79 0.00 0.00 0.000
3:51am 327 2 3 41 70 74.2 49.6 29.34 49.6 543 2342 66 -0.77 0.00 0.00 0.000
3:52am 327 1 3 41 72 74.2 49.6 29.34 49.6 543 2161 66 -0.76 0.00 0.00 0.000
3:53am 327 0 3 41 73 74.2 49.6 29.34 49.6 542 2072 65 -0.75 0.00 0.00 0.000
3:54am 327 0 3 41 73 74.2 49.6 29.34 49.6 542 2072 65 -0.73 0.00 0.00 0.000
3:55am 327 0 3 41 72 74.2 49.5 29.34 49.5 542 2160 58 -0.82 0.00 0.00 0.000
3:56am 327 1 1 41 72 74.2 49.5 29.34 49.5 540 2160 56 -0.81 0.00 0.00 0.000
3:57am 327 1 1 41 73 74.2 49.4 29.34 49.4 538 2070 47 -0.89 0.00 0.00 0.000
3:58am 327 0 2 41 72 74.2 49.4 29.34 49.4 539 2159 48 -0.88 0.00 0.00 0.000
3:59am 327 1 2 41 73 74.2 49.4 29.34 49.4 536 2070 45 -0.86 0.00 0.00 0.000
4:00am 10 2 2 41 72 74.2 49.3 29.34 49.3 537 2158 39 -0.95 0.00 0.00 0.000
4:01am 348 1 3 41 71 74.2 49.3 29.34 49.3 537 2248 39 -0.93 0.00 0.00 0.000
4:02am 348 1 3 41 70 74.2 49.3 29.35 49.3 535 2339 36 -0.92 0.00 0.00 0.000
4:03am 348 0 3 41 70 74.2 49.3 29.35 49.3 535 2339 36 -0.90 0.00 0.00 0.000
4:04am 348 1 3 41 72 74.2 49.3 29.35 49.3 534 2158 35 -0.89 0.00 0.00 0.000
4:05am 348 1 3 41 72 74.2 49.3 29.35 49.3 534 2158 35 -0.87 0.00 0.00 0.000
4:06am 348 1 3 41 71 74.2 49.3 29.35 49.3 534 2248 35 -0.86 0.00 0.00 0.000
4:07am 348 0 3 41 71 74.2 49.2 29.35 49.2 534 2247 28 -0.94 0.00 0.00 0.000
4:08am 348 0 3 41 71 74.2 49.2 29.35 49.2 533 2247 27 -0.93 0.00 0.00 0.000
4:09am 348 0 3 41 70 74.2 49.2 29.35 49.2 533 2338 27 -0.91 0.00 0.00 0.000
4:10am 348 0 3 41 70 74.2 49.1 29.35 49.1 533 2337 20 -1.00 0.00 0.00 0.000
4:11am 348 0 0 41 69 74.2 49.1 29.35 49.1 532 2429 19 -0.98 0.00 0.00 0.000
4:12am 348 0 0 41 70 74.2 49.1 29.35 49.1 532 2337 19 -0.96 0.00 0.00 0.000
4:13am 349 0 2 41 70 74.2 49.0 29.35 49.0 532 2336 12 -1.05 0.00 0.00 0.000
4:14am 272 0 2 41 70 74.2 49.0 29.35 49.0 532 2336 12 -1.03 0.00 0.00 0.000
4:15am 272 0 2 41 69 74.2 49.0 29.35 49.0 532 2428 12 -1.01 0.00 0.00 0.000
4:16am 272 0 0 41 69 74.2 48.9 29.35 48.9 532 2427 5 -1.10 0.00 0.00 0.000
4:17am 57 2 2 41 70 74.2 49.0 29.35 49.0 532 2336 12 -0.98 0.00 0.00 0.000
4:18am 16 0 4 41 69 74.2 49.0 29.35 49.0 531 2428 11 -0.96 0.00 0.00 0.000
4:19am 16 0 4 41 69 74.2 48.9 29.35 48.9 531 2427 4 -1.04 0.00 0.00 0.000
4:20am 16 0 4 41 69 74.2 48.8 29.35 48.8 532 2426 -1 -1.13 0.00 0.00 0.000
4:21am 16 0 1 41 69 74.2 48.8 29.35 48.8 531 2426 -2 -1.11 0.00 0.00 0.000
4:22am 16 0 1 41 70 74.2 48.8 29.35 48.8 530 2334 -4 -1.09 0.00 0.00 0.000
4:23am 16 1 1 41 69 74.2 48.8 29.35 48.8 531 2426 -2 -1.07 0.00 0.00 0.000
4:24am 27 0 4 41 69 74.2 48.7 29.35 48.7 531 2425 -9 -1.15 0.00 0.00 0.000
4:25am 27 0 4 41 69 74.2 48.7 29.35 48.7 530 2425 -10 -1.14 0.00 0.00 0.000
4:26am 27 0 0 41 70 74.2 48.7 29.35 48.7 529 2333 -11 -1.12 0.00 0.00 0.000
4:27am 27 0 0 41 70 74.2 48.7 29.35 48.7 528 2333 -13 -1.10 0.00 0.00 0.000
4:28am 27 0 0 41 70 74.2 48.7 29.35 48.7 528 2333 -13 -1.08 0.00 0.00 0.000
4:29am 27 0 1 41 70 74.2 48.6 29.36 48.6 526 2332 -22 -1.16 0.00 0.00 0.000
4:30am 27 0 1 41 70 74.2 48.6 29.35 48.6 528 2332 -19 -1.14 0.00 0.00 0.000
4:31am 27 1 1 41 70 74.2 48.5 29.35 48.5 528 2331 -26 -1.22 0.00 0.00 0.000
4:32am 27 0 3 41 70 74.2 48.5 29.36 48.5 526 2331 -28 -1.20 0.00 0.00 0.000
4:33am 27 0 3 41 71 74.2 48.5 29.36 48.5 526 2240 -28 -1.18 0.00 0.00 0.000
4:34am 27 0 3 41 72 74.2 48.4 29.35 48.4 527 2149 -34 -1.26 0.00 0.00 0.000
4:35am 27 0 3 41 71 74.2 48.3 29.35 48.3 527 2238 -41 -1.34 0.00 0.00 0.000
4:36am 34 1 2 41 71 74.2 48.3 29.36 48.3 526 2238 -42 -1.32 0.00 0.00 0.000
4:37am 34 0 2 42 70 74.2 48.3 29.36 48.3 524 2329 -44 -1.30 0.00 0.00 0.000
4:38am 34 0 2 41 71 74.2 48.2 29.36 48.2 525 2237 -50 -1.37 0.00 0.00 0.000
4:39am 79 3 3 41 71 74.2 48.2 29.36 47.6 524 2237 -51 -1.35 0.00 0.00 0.000
4:40am 78 0 3 41 71 74.2 48.2 29.36 48.2 525 2237 -50 -1.33 0.00 0.00 0.000
4:41am 79 1 2 41 72 74.2 48.1 29.35 48.1 528 2147 -53 -1.41 0.00 0.00 0.000
4:42am 79 0 2 41 71 74.2 48.1 29.36 48.1 526 2236 -55 -1.38 0.00 0.00 0.000
4:43am 79 0 2 41 71 74.2 48.1 29.35 48.1 527 2236 -54 -1.36 0.00 0.00 0.000
4:44am 79 2 2 41 71 74.2 48.0 29.35 48.0 528 2235 -60 -1.44 0.00 0.00 0.000
4:45am 79 0 2 41 70 74.2 48.0 29.36 48.0 525 2326 -63 -1.41 0.00 0.00 0.000
4:46am 79 0 0 41 71 74.2 48.0 29.36 48.0 525 2235 -63 -1.39 0.00 0.00 0.000
4:47am 79 0 0 41 71 74.2 47.9 29.36 47.9 525 2234 -70 -1.47 0.00 0.00 0.000
4:48am 79 0 1 41 70 74.0 47.9 29.36 47.9 525 2325 -70 -1.44 0.00 0.00 0.000
4:49am 79 0 1 41 70 74.0 47.9 29.36 47.9 525 2325 -70 -1.42 0.00 0.00 0.000
4:50am 79 0 1 41 70 74.0 47.9 29.36 47.9 524 2325 -71 -1.39 0.00 0.00 0.000
4:51am 79 0 0 41 70 74.0 47.9 29.36 47.9 524 2325 -71 -1.37 0.00 0.00 0.000
4:52am 79 0 0 41 70 74.0 47.9 29.36 47.9 524 2325 -71 -1.35 0.00 0.00 0.000
4:53am 79 0 1 41 70 74.0 47.8 29.36 47.8 523 2324 -80 -1.42 0.00 0.00 0.000
4:54am 79 0 1 41 70 74.0 47.9 29.36 47.9 523 2325 -73 -1.30 0.00 0.00 0.000
4:55am 79 0 1 41 70 74.0 47.8 29.36 47.8 524 2324 -79 -1.38 0.00 0.00 0.000
4:56am 79 0 1 41 71 74.0 47.8 29.36 47.8 523 2233 -80 -1.36 0.00 0.00 0.000
4:57am 79 0 1 41 71 74.0 47.8 29.36 47.8 522 2233 -81 -1.33 0.00 0.00 0.000
4:58am 79 0 2 41 71 74.0 47.8 29.36 47.8 522 2233 -81 -1.31 0.00 0.00 0.000
4:59am 79 0 2 41 71 74.0 47.8 29.36 47.8 521 2233 -82 -1.29 0.00 0.00 0.000
5:00am 79 0 2 41 71 74.0 47.8 29.36 47.8 522 2233 -81 -1.27 0.00 0.00 0.000
5:01am 79 0 0 41 71 74.2 47.7 29.36 47.7 521 2232 -89 -1.35 0.00 0.00 0.000
5:02am 79 0 0 40 72 74.0 47.8 29.36 47.8 521 2144 -82 -1.23 0.00 0.00 0.000
5:03am 79 0 0 41 72 74.0 47.7 29.36 47.7 521 2143 -89 -1.30 0.00 0.00 0.000
5:04am 79 0 0 41 72 74.0 47.7 29.36 47.7 521 2143 -89 -1.28 0.00 0.00 0.000
5:05am 79 1 1 41 72 74.0 47.6 29.36 47.6 521 2142 -96 -1.36 0.00 0.00 0.000
5:06am 79 0 1 41 72 74.2 47.6 29.36 47.6 520 2142 -97 -1.34 0.00 0.00 0.000
5:07am 79 0 1 41 72 74.2 47.6 29.36 47.6 521 2142 -96 -1.32 0.00 0.00 0.000
5:08am 79 0 1 41 72 74.2 47.5 29.36 47.5 520 2141 -104 -1.39 0.00 0.00 0.000
5:09am 79 0 1 41 71 74.2 47.4 29.36 47.4 522 2229 -108 -1.47 0.00 0.00 0.000
5:10am 79 0 1 41 72 74.2 47.4 29.36 47.4 521 2140 -109 -1.45 0.00 0.00 0.000
5:11am 79 0 0 41 72 74.2 47.4 29.36 47.4 521 2140 -109 -1.42 0.00 0.00 0.000
5:12am 79 0 0 41 73 74.2 47.4 29.36 47.4 522 2052 -108 -1.40 0.00 0.00 0.000
5:13am 79 0 0 41 73 74.2 47.3 29.36 47.3 522 2051 -115 -1.48 0.00 0.00 0.000
5:14am 79 0 0 41 73 74.0 47.2 29.36 47.2 520 2050 -124 -1.55 0.00 0.00 0.000
5:15am 79 0 0 40 73 74.0 47.2 29.36 47.2 520 2050 -124 -1.52 0.00 0.00 0.000
5:16am 79 0 0 40 73 74.0 47.2 29.36 47.2 520 2050 -124 -1.50 0.00 0.00 0.000
5:17am 79 0 0 41 73 74.0 47.1 29.36 47.1 519 2049 -132 -1.57 0.00 0.00 0.000
5:18am 79 0 0 41 73 74.0 47.0 29.36 47.0 519 2048 -138 -1.65 0.00 0.00 0.000
5:19am 79 0 0 40 73 74.0 46.9 29.36 46.9 519 2047 -145 -1.72 0.00 0.00 0.000
5:20am 79 0 0 41 73 74.0 46.9 29.36 46.9 519 2047 -145 -1.69 0.00 0.00 0.000
5:21am 79 0 0 40 74 74.0 46.9 29.36 46.9 519 1960 -145 -1.66 0.00 0.00 0.000
5:22am 79 0 0 40 74 74.0 46.8 29.36 46.8 519 1959 -152 -1.74 0.00 0.00 0.000
5:23am 79 0 0 41 74 74.0 46.7 29.36 46.7 518 1959 -160 -1.80 0.00 0.00 0.000
5:24am 79 0 0 40 74 74.0 46.7 29.36 46.7 518 1959 -160 -1.78 0.00 0.00 0.000
5:25am 79 0 0 41 75 74.0 46.7 29.36 46.7 518 1873 -160 -1.75 0.00 0.00 0.000
5:26am 79 0 0 40 74 74.0 46.6 29.36 46.6 518 1958 -167 -1.82 0.00 0.00 0.000
5:27am 79 0 0 40 74 74.0 46.5 29.36 46.5 518 1957 -173 -1.89 0.00 0.00 0.000
5:28am 79 0 0 41 74 74.0 46.4 29.36 46.4 518 1956 -180 -1.95 0.00 0.00 0.000
5:29am 79 0 0 40 75 74.0 46.5 29.36 46.5 518 1871 -173 -1.82 0.00 0.00 0.000
5:30am 79 0 0 41 75 74.0 46.4 29.37 46.4 517 1870 -181 -1.89 0.00 0.00 0.000
5:31am 79 0 0 41 75 74.0 46.3 29.37 46.3 517 1869 -188 -1.96 0.00 0.00 0.000
5:32am 79 0 0 41 75 74.0 46.2 29.37 46.2 517 1869 -195 -2.03 0.00 0.00 0.000
5:33am 79 0 0 40 75 74.0 46.2 29.37 46.2 517 1869 -195 -1.99 0.00 0.00 0.000
5:34am 79 0 0 40 75 74.0 46.1 29.37 46.1 517 1868 -202 -2.06 0.00 0.00 0.000
5:35am 79 0 0 41 75 74.0 46.0 29.37 46.0 516 1867 -209 -2.12 0.00 0.00 0.000
5:36am 79 0 0 40 75 74.0 46.0 29.37 46.0 516 1867 -209 -2.09 0.00 0.00 0.000
5:37am 79 0 0 41 75 74.0 45.9 29.37 45.9 516 1866 -216 -2.15 0.00 0.00 0.000
5:38am 79 0 0 41 75 74.0 45.8 29.37 45.8 516 1865 -223 -2.22 0.00 0.00 0.000
5:39am 79 0 0 41 75 74.0 45.8 29.37 45.8 517 1865 -222 -2.18 0.00 0.00 0.000
5:40am 79 0 0 40 75 74.0 45.6 29.37 45.6 517 1864 -235 -2.34 0.00 0.00 0.000
5:41am 79 0 0 41 75 74.0 45.6 29.37 45.6 517 1864 -235 -2.30 0.00 0.00 0.000
5:42am 79 0 0 40 76 74.0 45.6 29.37 45.6 516 1779 -237 -2.27 0.00 0.00 0.000
5:43am 79 0 0 41 76 74.0 45.5 29.37 45.5 515 1778 -244 -2.33 0.00 0.00 0.000
5:44am 79 0 0 40 76 74.0 45.4 29.37 45.4 514 1778 -252 -2.39 0.00 0.00 0.000
5:45am 79 0 0 40 76 74.0 45.4 29.37 45.4 513 1778 -254 -2.35 0.00 0.00 0.000
5:46am 79 0 0 40 76 74.0 45.3 29.37 45.3 514 1777 -259 -2.41 0.00 0.00 0.000
5:47am 79 0 0 40 76 74.0 45.2 29.37 45.2 513 1776 -267 -2.47 0.00 0.00 0.000
5:48am 79 0 0 40 76 74.0 45.1 29.37 45.1 513 1775 -274 -2.53 0.00 0.00 0.000
5:49am 79 0 0 40 76 74.0 45.1 29.37 45.1 513 1775 -274 -2.49 0.00 0.00 0.000
5:50am 79 0 0 40 76 74.0 45.0 29.37 45.0 512 1774 -282 -2.55 0.00 0.00 0.000
5:51am 79 0 0 40 76 74.0 44.9 29.37 44.9 513 1774 -287 -2.60 0.00 0.00 0.000
5:52am 79 0 0 40 76 74.0 44.9 29.37 44.9 513 1774 -287 -2.56 0.00 0.00 0.000
5:53am 79 0 0 40 77 74.0 44.9 29.37 44.9 512 1690 -290 -2.52 0.00 0.00 0.000
5:54am 79 0 0 40 77 74.0 44.8 29.37 44.8 512 1690 -296 -2.57 0.00 0.00 0.000
5:55am 79 0 0 40 77 74.0 44.8 29.37 44.8 511 1690 -298 -2.53 0.00 0.00 0.000
5:56am 79 0 0 40 77 74.0 44.6 29.37 44.6 510 1688 -312 -2.69 0.00 0.00 0.000
5:57am 79 0 0 40 77 74.0 44.6 29.37 44.6 510 1688 -312 -2.64 0.00 0.00 0.000
5:58am 79 0 0 40 77 74.0 44.5 29.37 44.5 509 1687 -320 -2.70 0.00 0.00 0.000
5:59am 79 0 0 40 77 74.0 44.5 29.37 44.5 508 1687 -321 -2.65 0.00 0.00 0.000
6:00am 79 0 0 40 78 74.0 44.4 29.38 44.4 507 1605 -329 -2.71 0.00 0.00 0.000
6:01am 79 0 0 40 78 74.0 44.3 29.38 44.3 506 1604 -337 -2.76 0.00 0.00 0.000
6:02am 79 0 0 40 78 74.0 44.3 29.38 44.3 506 1604 -337 -2.72 0.00 0.00 0.000
6:03am 79 0 0 40 78 74.0 44.2 29.38 44.2 506 1603 -344 -2.77 0.00 0.00 0.000
6:04am 79 0 0 40 78 74.0 44.1 29.38 44.1 506 1602 -351 -2.82 0.00 0.00 0.000
6:05am 79 0 0 40 78 74.0 44.1 29.38 44.1 505 1602 -352 -2.78 0.00 0.00 0.000
6:06am 79 0 0 41 78 74.0 44.1 29.38 44.1 505 1602 -352 -2.73 0.00 0.00 0.000
6:07am 79 0 0 41 78 74.0 44.1 29.38 44.1 505 1602 -352 -2.69 0.00 0.00 0.000
6:08am 79 0 0 40 78 74.2 44.0 29.38 44.0 505 1602 -359 -2.74 0.00 0.00 0.000
6:09am 79 0 0 40 78 74.2 43.9 29.38 43.9 505 1601 -366 -2.80 0.00 0.00 0.000
6:10am 79 0 0 40 78 74.2 43.8 29.38 43.8 505 1600 -372 -2.85 0.00 0.00 0.000
6:11am 79 0 0 40 79 74.2 43.8 29.38 43.8 506 1519 -371 -2.80 0.00 0.00 0.000
6:12am 79 0 0 40 79 74.0 43.7 29.38 43.7 506 1519 -378 -2.86 0.00 0.00 0.000
6:13am 79 0 0 40 79 74.0 43.6 29.38 43.6 507 1518 -384 -2.91 0.00 0.00 0.000
6:14am 79 0 0 40 79 74.0 43.6 29.38 43.6 507 1518 -384 -2.86 0.00 0.00 0.000
6:15am 79 0 0 40 79 74.0 43.6 29.38 43.6 507 1518 -384 -2.81 0.00 0.00 0.000
6:16am 79 0 0 40 79 74.0 43.5 29.38 43.5 507 1517 -391 -2.86 0.00 0.00 0.000
6:17am 79 0 0 40 79 74.0 43.4 29.37 43.4 508 1517 -396 -2.91 0.00 0.00 0.000
6:18am 79 0 0 40 79 74.0 43.4 29.37 43.4 508 1517 -396 -2.87 0.00 0.00 0.000
6:19am 79 0 0 40 80 74.0 43.4 29.37 43.4 508 1437 -396 -2.82 0.00 0.00 0.000
6:20am 79 0 0 40 80 74.0 43.3 29.37 43.3 509 1436 -402 -2.87 0.00 0.00 0.000
6:21am 79 0 0 40 80 74.0 43.3 29.37 43.3 508 1436 -403 -2.83 0.00 0.00 0.000
6:22am 79 0 0 40 80 74.0 43.4 29.37 43.4 508 1437 -396 -2.68 0.00 0.00 0.000
6:23am 79 0 0 40 81 74.0 43.4 29.38 43.4 507 1358 -397 -2.64 0.00 0.00 0.000
6:24am 79 0 0 40 81 74.0 43.4 29.38 43.4 507 1358 -397 -2.59 0.00 0.00 0.000
6:25am 79 0 0 40 81 74.0 43.4 29.38 43.4 506 1358 -399 -2.55 0.00 0.00 0.000
6:26am 79 0 0 40 82 74.0 43.4 29.38 43.4 505 1280 -400 -2.51 0.00 0.00 0.000
6:27am 79 0 0 40 82 74.0 43.4 29.38 43.4 505 1280 -400 -2.47 0.00 0.00 0.000
6:28am 79 0 0 40 82 74.0 43.5 29.38 43.5 505 1280 -393 -2.32 0.00 0.00 0.000
6:29am 79 0 0 40 82 74.0 43.4 29.38 43.4 504 1280 -401 -2.39 0.00 0.00 0.000
6:30am 79 0 0 40 82 74.0 43.4 29.38 43.4 504 1280 -401 -2.35 0.00 0.00 0.000
6:31am 79 0 0 40 82 74.0 43.4 29.38 43.4 504 1280 -401 -2.31 0.00 0.00 0.000
6:32am 79 0 0 40 82 74.0 43.4 29.38 43.4 504 1280 -401 -2.27 0.00 0.00 0.000
6:33am 79 0 0 40 82 74.0 43.4 29.38 43.4 504 1280 -401 -2.23 0.00 0.00 0.000
6:34am 79 0 0 40 82 74.0 43.4 29.38 43.4 504 1280 -401 -2.19 0.00 0.00 0.000
6:35am 79 0 0 40 83 74.0 43.4 29.38 43.4 504 1202 -401 -2.16 0.00 0.00 0.000
6:36am 79 0 0 40 83 74.0 43.4 29.38 43.4 503 1202 -402 -2.12 0.00 0.00 0.000
6:37am 79 0 0 40 83 74.0 43.5 29.38 43.5 502 1203 -396 -1.99 0.00 0.00 0.000
6:38am 79 0 0 40 83 74.0 43.4 29.38 43.4 502 1202 -403 -2.06 0.00 0.00 0.000
6:39am 79 0 0 40 82 74.0 43.4 29.38 43.4 502 1280 -403 -2.02 0.00 0.00 0.000
6:40am 79 0 0 40 82 74.0 43.4 29.38 43.4 501 1280 -404 -1.99 0.00 0.00 0.000
6:41am 79 0 0 40 82 74.0 43.4 29.38 43.4 502 1280 -403 -1.96 0.00 0.00 0.000
6:42am 79 0 0 40 82 74.0 43.4 29.38 43.4 502 1280 -403 -1.92 0.00 0.00 0.000
6:43am 79 0 0 40 82 74.0 43.4 29.38 43.4 502 1280 -403 -1.89 0.00 0.00 0.000
6:44am 79 0 0 40 83 74.0 43.4 29.38 43.4 501 1202 -404 -1.86 0.00 0.00 0.000
6:45am 79 0 0 40 83 74.0 43.4 29.38 43.4 500 1202 -405 -1.83 0.00 0.00 0.000
6:46am 79 0 0 40 83 74.0 43.3 29.38 43.3 499 1202 -414 -1.90 0.00 0.00 0.000
6:47am 79 0 0 40 83 74.0 43.4 29.39 43.4 498 1202 -409 -1.77 0.00 0.00 0.000
6:48am 79 0 0 40 83 74.0 43.4 29.39 43.4 497 1202 -410 -1.74 0.00 0.00 0.000
6:49am 79 0 0 40 83 74.0 43.3 29.39 43.3 496 1202 -418 -1.81 0.00 0.00 0.000
6:50am 79 0 0 40 83 74.0 43.4 29.39 43.4 496 1202 -411 -1.68 0.00 0.00 0.000
6:51am 79 0 0 40 84 74.0 43.4 29.39 43.4 496 1126 -411 -1.65 0.00 0.00 0.000
6:52am 79 0 0 40 84 74.0 43.5 29.39 43.5 496 1126 -404 -1.53 0.00 0.00 0.000
6:53am 79 0 0 40 84 74.0 43.5 29.39 43.5 497 1126 -403 -1.50 0.00 0.00 0.000
6:54am 79 0 0 40 84 74.0 43.6 29.39 43.6 497 1127 -396 -1.38 0.00 0.00 0.000
6:55am 79 0 0 40 84 74.0 43.7 29.39 43.7 498 1127 -388 -1.26 0.00 0.00 0.000
6:56am 79 0 0 40 84 74.0 43.8 29.38 43.8 499 1128 -380 -1.14 0.00 0.00 0.000
6:57am 79 0 0 40 84 74.0 43.8 29.38 43.8 500 1128 -379 -1.12 0.00 0.00 0.000
6:58am 79 0 0 40 84 74.0 43.9 29.38 43.9 500 1128 -373 -1.00 0.00 0.00 0.000
6:59am 79 0 0 40 84 74.0 44.0 29.38 44.0 499 1129 -367 -0.88 0.00 0.00 0.000
7:00am 79 0 0 40 84 74.0 44.0 29.38 44.0 499 1129 -367 -0.87 0.00 0.00 0.000
7:01am 79 0 0 40 84 74.0 44.1 29.39 44.1 497 1129 -362 -0.76 0.00 0.00 0.000
7:02am 79 0 0 40 85 74.0 44.2 29.39 44.2 495 1054 -358 -0.64 0.00 0.00 0.000
7:03am 79 0 0 40 85 74.0 44.4 29.39 44.4 494 1055 -345 -0.44 0.00 0.00 0.000
7:04am 79 0 0 40 84 74.0 44.4 29.39 44.4 492 1131 -348 -0.43 0.00 0.00 0.000
7:05am 79 0 0 40 84 74.0 44.5 29.39 44.5 491 1131 -342 -0.32 0.00 0.00 0.000
7:06am 79 0 0 40 84 74.0 44.5 29.39 44.5 490 1131 -343 -0.31 0.00 0.00 0.000
7:07am 79 0 0 40 84 74.0 44.6 29.39 44.6 490 1132 -336 -0.21 0.00 0.00 0.000
7:08am 79 0 0 40 84 74.0 44.6 29.39 44.6 490 1132 -336 -0.21 0.00 0.00 0.000
7:09am 79 0 0 40 84 74.0 44.7 29.39 44.7 489 1132 -331 -0.11 0.00 0.00 0.000
7:10am 79 0 0 40 83 74.0 44.8 29.39 44.8 489 1210 -324 -0.00 0.00 0.00 0.000
7:11am 79 0 0 40 83 74.0 44.8 29.39 44.8 489 1210 -324 -0.00 0.00 0.00 0.000
7:12am 79 0 0 40 83 74.0 44.9 29.39 44.9 489 1210 -317 0.09 0.00 0.00 0.000
7:13am 79 0 0 40 83 74.0 45.1 29.39 45.1 489 1211 -304 0.29 0.00 0.00 0.000
7:14am 79 0 0 40 83 74.0 45.1 29.39 45.1 489 1211 -304 0.29 0.00 0.00 0.000
7:15am 79 0 0 40 83 74.0 45.2 29.39 45.2 489 1212 -297 0.38 0.00 0.00 0.000
7:16am 79 0 0 40 83 74.0 45.3 29.39 45.3 489 1212 -290 0.47 0.00 0.00 0.000
7:17am 79 0 0 40 82 74.0 45.4 29.39 45.4 489 1291 -283 0.57 0.00 0.00 0.000
7:18am 79 0 0 40 82 74.0 45.5 29.39 45.5 489 1292 -276 0.66 0.00 0.00 0.000
7:19am 79 0 0 40 82 74.0 45.6 29.39 45.6 489 1292 -270 0.74 0.00 0.00 0.000
7:20am 79 0 0 40 82 74.0 45.7 29.39 45.7 489 1293 -263 0.83 0.00 0.00 0.000
7:21am 79 0 0 40 82 74.0 45.8 29.39 45.8 489 1293 -256 0.92 0.00 0.00 0.000
7:22am 79 0 0 40 81 74.0 45.9 29.39 45.9 489 1373 -249 1.00 0.00 0.00 0.000
7:23am 79 0 0 40 81 74.0 46.0 29.40 46.0 488 1373 -244 1.08 0.00 0.00 0.000
7:24am 79 0 0 40 81 74.0 46.1 29.40 46.1 488 1374 -237 1.17 0.00 0.00 0.000
7:25am 79 0 0 40 81 74.0 46.1 29.40 46.1 488 1374 -237 1.15 0.00 0.00 0.000
7:26am 79 0 0 40 81 74.0 46.2 29.40 46.2 488 1375 -230 1.23 0.00 0.00 0.000
7:27am 79 0 0 40 81 74.0 46.3 29.40 46.3 488 1375 -223 1.30 0.00 0.00 0.000
7:28am 79 0 0 40 81 74.0 46.5 29.40 46.5 488 1377 -210 1.48 0.00 0.00 0.000
7:29am 79 0 0 40 81 74.0 46.5 29.40 46.5 488 1377 -210 1.46 0.00 0.00 0.000
7:30am 79 0 0 40 81 74.0 46.7 29.40 46.7 488 1378 -196 1.63 0.00 0.00 0.000
7:31am 79 0 0 40 81 74.0 46.7 29.40 46.7 488 1378 -196 1.60 0.00 0.00 0.000
7:32am 79 0 0 40 81 74.0 46.8 29.40 46.8 488 1378 -190 1.67 0.00 0.00 0.000
7:33am 79 0 0 40 80 74.0 46.9 29.39 46.9 489 1459 -182 1.75 0.00 0.00 0.000
7:34am 79 0 0 40 80 74.0 47.0 29.39 47.0 489 1460 -175 1.82 0.00 0.00 0.000
7:35am 79 0 0 40 80 74.0 47.2 29.39 47.2 489 1461 -162 1.98 0.00 0.00 0.000
7:36am 79 0 0 40 80 74.0 47.3 29.40 47.3 488 1462 -156 2.05 0.00 0.00 0.000
7:37am 79 0 0 40 80 74.0 47.4 29.40 47.4 488 1462 -149 2.11 0.00 0.00 0.000
7:38am 79 0 0 40 80 74.0 47.5 29.40 47.5 488 1463 -144 2.18 0.00 0.00 0.000
7:39am 79 0 0 40 80 74.0 47.6 29.40 47.6 487 1464 -138 2.24 0.00 0.00 0.000
7:40am 79 0 0 40 80 74.0 47.7 29.40 47.7 485 1464 -134 2.30 0.00 0.00 0.000
7:41am 79 0 0 40 80 74.0 47.7 29.40 47.7 484 1464 -135 2.26 0.00 0.00 0.000
7:42am 79 0 0 40 80 74.0 47.9 29.40 47.9 485 1466 -120 2.43 0.00 0.00 0.000
7:43am 79 0 0 40 80 74.0 48.0 29.40 48.0 485 1466 -113 2.48 0.00 0.00 0.000
7:44am 79 0 0 40 79 74.0 48.1 29.40 48.1 485 1549 -107 2.54 0.00 0.00 0.000
7:45am 79 0 0 40 79 74.0 48.2 29.40 48.2 485 1549 -100 2.60 0.00 0.00 0.000
7:46am 79 0 0 40 79 74.0 48.3 29.40 48.3 484 1550 -94 2.66 0.00 0.00 0.000
7:47am 79 0 0 40 79 74.0 48.5 29.40 48.5 483 1551 -82 2.81 0.00 0.00 0.000
7:48am 79 0 0 40 79 74.0 48.6 29.40 48.6 483 1552 -75 2.86 0.00 0.00 0.000
7:49am 79 0 0 40 79 74.0 48.7 29.40 48.7 484 1553 -67 2.92 0.00 0.00 0.000
7:50am 79 0 0 40 79 74.0 48.9 29.40 48.9 484 1554 -54 3.07 0.00 0.00 0.000
7:51am 79 0 0 40 79 74.0 49.0 29.40 49.0 485 1555 -46 3.12 0.00 0.00 0.000
7:52am 79 0 0 40 78 74.0 49.2 29.40 49.2 485 1639 -33 3.26 0.00 0.00 0.000
7:53am 79 0 0 40 78 74.0 49.4 29.40 49.4 484 1640 -20 3.41 0.00 0.00 0.000
7:54am 79 0 0 40 78 74.0 49.6 29.40 49.6 484 1642 -7 3.55 0.00 0.00 0.000
7:55am 79 0 0 40 78 74.0 49.7 29.40 49.7 484 1643 -0 3.59 0.00 0.00 0.000
7:56am 79 0 0 40 77 74.0 49.9 29.40 49.9 483 1728 12 3.73 0.00 0.00 0.000
7:57am 79 0 0 40 76 74.0 50.1 29.40 50.1 483 1815 25 3.86 0.00 0.00 0.000
7:58am 79 0 0 40 76 74.0 50.2 29.40 50.2 482 1816 31 3.90 0.00 0.00 0.000
7:59am 79 0 0 40 76 74.0 50.3 29.40 50.3 480 1816 35 3.93 0.00 0.00 0.000
8:00am 79 0 0 40 76 74.0 50.5 29.40 50.5 480 1818 49 4.07 0.00 0.00 0.000
8:01am 79 0 0 40 76 74.0 50.6 29.41 50.6 479 1819 54 4.10 0.00 0.00 0.000
8:02am 79 0 0 40 76 74.0 50.7 29.41 50.7 478 1819 60 4.13 0.00 0.00 0.000
8:03am 79 0 0 40 74 74.0 50.8 29.41 50.8 477 1994 65 4.16 0.00 0.00 0.000
8:04am 327 0 0 40 74 74.0 50.9 29.41 50.9 477 1995 72 4.19 0.00 0.00 0.000
8:05am 327 0 0 40 74 74.0 51.0 29.41 51.0 477 1996 79 4.22 0.00 0.00 0.000
8:06am 327 0 0 40 74 74.0 51.1 29.41 51.1 477 1997 85 4.25 0.00 0.00 0.000
8:07am 327 0 0 40 75 74.0 51.2 29.41 51.2 476 1910 91 4.28 0.00 0.00 0.000
8:08am 327 0 0 40 74 74.0 51.3 29.41 51.3 476 1998 98 4.31 0.00 0.00 0.000
8:09am 327 0 0 40 74 74.0 51.3 29.41 51.3 476 1998 97 4.24 0.00 0.00 0.000
8:10am 327 0 0 40 73 74.0 51.5 29.41 51.5 476 2089 110 4.36 0.00 0.00 0.000
8:11am 328 0 0 40 73 74.0 51.6 29.41 51.6 476 2090 117 4.39 0.00 0.00 0.000
8:12am 300 0 0 40 73 74.0 51.7 29.41 51.7 476 2091 123 4.42 0.00 0.00 0.000
8:13am 300 0 0 40 72 74.0 51.7 29.41 51.7 476 2181 123 4.34 0.00 0.00 0.000
8:14am 300 0 0 40 72 74.0 51.8 29.41 51.8 476 2182 130 4.37 0.00 0.00 0.000
8:15am 197 0 0 40 72 74.0 51.9 29.41 51.9 476 2183 137 4.40 0.00 0.00 0.000
8:16am 285 0 0 40 70 74.0 52.0 29.41 52.0 476 2367 143 4.42 0.00 0.00 0.000
8:17am 286 0 0 40 70 74.0 52.1 29.41 52.1 476 2368 150 4.45 0.00 0.00 0.000
8:18am 286 0 0 40 70 74.0 52.2 29.41 52.2 476 2369 157 4.48 0.00 0.00 0.000
8:19am 286 0 0 40 70 74.0 52.3 29.41 52.3 476 2370 163 4.50 0.00 0.00 0.000
8:20am 286 0 0 40 71 74.0 52.3 29.41 52.3 476 2278 163 4.43 0.00 0.00 0.000
8:21am 286 0 0 40 71 74.0 52.5 29.41 52.5 476 2280 177 4.55 0.00 0.00 0.000
8:22am 283 0 0 40 71 74.0 52.6 29.41 52.6 476 2281 184 4.58 0.00 0.00 0.000
8:23am 282 0 0 40 69 74.0 52.6 29.41 52.6 476 2467 184 4.50 0.00 0.00 0.000
8:24am 282 0 0 40 68 74.0 52.8 29.41 52.8 476 2564 198 4.62 0.00 0.00 0.000
8:25am 256 2 4 40 69 74.0 52.9 29.41 52.9 477 2470 206 4.65 0.00 0.00 0.000
8:26am 266 0 2 40 68 74.0 53.0 29.41 53.0 477 2566 212 4.67 0.00 0.00 0.000
8:27am 266 1 2 40 69 74.0 53.1 29.41 53.1 477 2472 219 4.69 0.00 0.00 0.000
8:28am 266 0 2 40 68 74.0 53.2 29.41 53.2 477 2568 225 4.71 0.00 0.00 0.000
8:29am 266 1 2 40 68 74.0 53.3 29.41 53.3 477 2569 232 4.74 0.00 0.00 0.000
8:30am 266 2 2 40 69 74.0 53.4 29.41 53.4 476 2475 238 4.76 0.00 0.00 0.000
8:31am 266 0 2 40 68 74.0 53.5 29.41 53.5 477 2572 245 4.78 0.00 0.00 0.000
8:32am 266 1 2 40 69 74.0 53.6 29.41 53.6 476 2478 251 4.79 0.00 0.00 0.000
8:33am 258 2 2 40 68 74.0 53.7 29.41 53.7 477 2574 259 4.81 0.00 0.00 0.000
8:34am 183 2 3 40 66 74.0 53.8 29.41 53.8 477 2770 265 4.83 0.00 0.00 0.000
8:35am 220 3 4 40 66 74.0 53.8 29.41 53.8 478 2770 267 4.75 0.00 0.00 0.000
8:36am 220 1 3 40 63 74.0 53.9 29.41 53.9 478 3073 273 4.78 0.00 0.00 0.000
8:37am 310 2 3 40 64 74.0 54.0 29.41 54.0 477 2972 279 4.79 0.00 0.00 0.000
8:38am 262 2 3 40 63 74.0 54.1 29.41 54.1 477 3075 285 4.81 0.00 0.00 0.000
8:39am 263 0 3 40 62 74.0 54.1 29.41 54.1 477 3179 285 4.74 0.00 0.00 0.000
8:40am 209 1 3 40 62 74.0 54.1 29.41 54.1 476 3179 284 4.66 0.00 0.00 0.000
8:41am 209 0 1 40 63 74.0 54.2 29.41 54.2 476 3077 291 4.68 0.00 0.00 0.000
8:42am 209 1 1 40 63 74.0 54.2 29.41 54.2 476 3077 291 4.60 0.00 0.00 0.000
8:43am 220 1 2 40 63 74.0 54.3 29.41 54.3 476 3078 297 4.62 0.00 0.00 0.000
8:44am 197 2 3 40 61 74.0 54.4 29.41 54.4 477 3288 305 4.65 0.00 0.00 0.000
8:45am 197 1 3 40 62 74.0 54.5 29.41 54.5 477 3184 312 4.67 0.00 0.00 0.000
8:46am 198 3 3 40 62 74.0 54.6 29.41 54.6 476 3186 317 4.69 0.00 0.00 0.000
8:47am 198 3 3 40 61 74.0 54.6 29.41 54.6 476 3291 317 4.61 0.00 0.00 0.000
8:48am 243 2 6 40 62 74.0 54.7 29.41 54.7 476 3187 324 4.64 0.00 0.00 0.000
8:49am 106 2 6 40 61 74.0 54.8 29.41 54.8 476 3294 331 4.66 0.00 0.00 0.000
8:50am 191 1 6 40 61 74.0 54.8 29.41 54.8 476 3294 331 4.59 0.00 0.00 0.000
8:51am 91 2 3 40 58 74.0 54.9 29.41 54.9 476 3621 336 4.61 0.00 0.00 0.000
8:52am 91 1 3 40 59 74.0 54.9 29.41 54.9 476 3511 337 4.53 0.00 0.00 0.000
8:53am 91 0 3 40 58 74.0 55.1 29.41 55.1 476 3624 350 4.65 0.00 0.00 0.000
8:54am 91 0 3 40 59 74.0 55.1 29.41 55.1 476 3514 349 4.58 0.00 0.00 0.000
8:55am 91 0 3 40 60 74.0 55.3 29.41 55.3 476 3408 364 4.70 0.00 0.00 0.000
8:56am 91 2 2 40 59 74.0 55.4 29.41 55.4 476 3518 370 4.72 0.00 0.00 0.000
8:57am 96 2 4 40 57 74.0 55.4 29.41 55.4 476 3741 370 4.65 0.00 0.00 0.000
8:58am 96 1 4 40 60 74.0 55.5 29.41 55.5 476 3411 377 4.67 0.00 0.00 0.000
8:59am 96 3 4 40 59 74.0 55.6 29.41 55.6 476 3521 383 4.69 0.00 0.00 0.000
9:00am 349 1 4 40 56 74.0 55.7 29.41 55.7 476 3860 390 4.71 0.00 0.00 0.000
9:01am 349 0 2 40 58 74.0 55.7 29.41 55.7 476 3633 390 4.63 0.00 0.00 0.000
9:02am 349 1 2 41 59 74.0 55.9 29.41 55.9 476 3526 403 4.75 0.00 0.00 0.000
9:03am 310 0 2 40 58 74.0 55.9 29.41 55.9 476 3636 403 4.67 0.00 0.00 0.000
9:04am 310 1 2 40 59 74.0 56.0 29.41 56.0 476 3527 410 4.70 0.00 0.00 0.000
9:05am 221 3 3 40 59 74.0 56.0 29.41 56.0 476 3527 410 4.62 0.00 0.00 0.000
9:06am 293 2 3 40 56 74.0 56.1 29.41 56.1 476 3866 417 4.64 0.00 0.00 0.000
9:07am 265 0 3 40 56 74.0 56.1 29.41 56.1 476 3866 417 4.56 0.00 0.00 0.000
9:08am 265 0 3 40 58 74.0 56.3 29.41 56.3 477 3643 431 4.69 0.00 0.00 0.000
9:09am 265 0 3 40 59 74.0 56.4 29.41 56.4 478 3533 439 4.71 0.00 0.00 0.000
9:10am 265 2 3 40 58 74.0 56.6 29.41 56.6 479 3647 453 4.83 0.00 0.00 0.000
9:11am 254 0 2 40 59 74.0 56.6 29.40 56.6 480 3536 454 4.75 0.00 0.00 0.000
9:12am 254 1 2 40 55 74.0 56.7 29.40 56.7 480 3992 461 4.77 0.00 0.00 0.000
9:13am 255 0 3 40 54 74.0 56.8 29.40 56.8 480 4112 467 4.79 0.00 0.00 0.000
9:14am 255 0 3 40 54 74.0 56.9 29.41 56.9 479 4114 473 4.81 0.00 0.00 0.000
9:15am 158 2 7 40 52 74.0 57.0 29.40 57.0 480 4358 480 4.83 0.00 0.00 0.000
9:16am 232 2 3 40 54 74.0 57.1 29.41 57.1 479 4118 486 4.85 0.00 0.00 0.000
9:17am 314 0 3 40 56 74.0 57.2 29.40 57.2 480 3884 494 4.87 0.00 0.00 0.000
9:18am 265 1 3 40 53 74.0 57.2 29.41 57.2 479 4240 492 4.79 0.00 0.00 0.000
9:19am 237 4 4 40 52 74.0 57.3 29.40 57.3 480 4364 500 4.81 0.00 0.00 0.000
9:20am 258 3 4 40 49 74.0 57.4 29.40 57.4 481 4746 508 4.83 0.00 0.00 0.000
9:21am 271 1 3 40 52 74.0 57.5 29.40 57.5 480 4368 513 4.85 0.00 0.00 0.000
9:22am 252 1 3 40 55 74.0 57.5 29.40 57.5 483 4006 517 4.77 0.00 0.00 0.000
9:23am 278 1 4 40 52 74.0 57.5 29.40 57.5 480 4368 513 4.69 0.00 0.00 0.000
9:24am 278 0 4 40 48 74.0 57.5 29.40 57.5 480 4880 513 4.61 0.00 0.00 0.000
9:25am 277 1 4 40 47 74.0 57.5 29.40 57.5 480 5014 513 4.54 0.00 0.00 0.000
9:26am 278 1 3 40 48 74.0 57.5 29.41 57.5 479 4880 512 4.46 0.00 0.00 0.000
9:27am 278 1 3 40 47 74.0 57.5 29.40 57.5 481 5014 515 4.39 0.00 0.00 0.000
9:28am 280 0 3 40 48 74.0 57.5 29.40 57.5 480 4880 513 4.31 0.00 0.00 0.000
9:29am 181 2 3 40 47 74.0 57.5 29.40 57.5 482 5014 516 4.25 0.00 0.00 0.000
9:30am 181 2 3 40 51 74.0 57.5 29.40 57.5 482 4492 516 4.17 0.00 0.00 0.000
9:31am 117 0 2 40 50 74.0 57.6 29.40 57.6 482 4621 522 4.20 0.00 0.00 0.000
9:32am 117 1 2 40 54 74.0 57.7 29.40 57.7 482 4128 529 4.23 0.00 0.00 0.000
9:33am 226 4 8 40 54 74.0 57.7 29.40 57.7 483 4128 530 4.16 0.00 0.00 0.000
9:34am 227 3 8 40 48 74.0 57.7 29.40 57.7 483 4884 530 4.09 0.00 0.00 0.000
9:35am 271 2 8 40 49 74.0 57.8 29.40 57.8 484 4754 538 4.12 0.00 0.00 0.000
9:36am 179 4 6 40 50 74.0 57.8 29.40 57.8 481 4625 534 4.06 0.00 0.00 0.000
9:37am 182 2 6 40 50 74.0 57.9 29.40 57.9 483 4627 543 4.09 0.00 0.00 0.000
9:38am 194 3 6 40 50 74.0 57.9 29.40 57.9 483 4627 543 4.02 0.00 0.00 0.000
9:39am 258 5 6 40 50 74.0 58.0 29.40 57.6 484 4629 551 4.05 0.00 0.00 0.000
9:40am 276 3 6 40 49 74.0 58.1 29.40 58.1 485 4760 559 4.09 0.00 0.00 0.000
9:41am 179 1 3 40 48 74.0 58.1 29.40 58.1 485 4892 559 4.02 0.00 0.00 0.000
9:42am 286 3 3 40 49 74.0 58.2 29.40 58.2 487 4762 567 4.05 0.00 0.00 0.000
9:43am 228 2 3 40 51 74.0 58.2 29.40 58.2 485 4506 565 3.98 0.00 0.00 0.000
9:44am 300 2 3 40 51 74.0 58.3 29.40 58.3 485 4508 572 4.02 0.00 0.00 0.000
9:45am 239 3 4 40 50 73.8 58.3 29.40 58.3 486 4635 573 3.95 0.00 0.00 0.000
|
Data provided from: Mark Hofmann's Bel Air, MD Weather Station |